[[{"header":{"parameterUnit":"m.s-1","parameterCategory":1,"la1":30.2991,"la2":30.254,"lo1":-89.0895,"lo2":-89.0444,"dy":0.0017,"dx":0.0017,"nx":28,"ny":28,"refTime":"2025-01-14T03:00:00:Z","depth":0,"parameterNumber":2,"parameterNumberName":"U-component_of_WINDS"},"data":[0,0,0,0,0,0,0,0,0,0,0,0,0,0,0,0,0,0,0,0,0,0,0,0,0,0,0,0,0,0,0,0,0,0,0,0,0,0,0,0,0,0,0,0,0,0,0,0,0,0,0,0,0,0,0,0,0,0,-4.4829,-4.483,0,-4.4926,-4.4928,-4.4929,-4.4832,-4.4829,-4.4825,-4.4821,-4.4923,-4.4929,-4.4936,0,0,0,0,0,0,0,0,0,0,0,0,0,-4.4562,-4.4567,-4.4829,-4.483,-4.4831,-4.4926,-4.4928,-4.4929,-4.4833,-4.4828,-4.4824,-4.482,-4.4921,-4.4929,-4.4936,0,0,0,0,0,0,0,0,0,0,0,0,0,-4.4671,-4.4569,-4.4829,-4.4795,-4.4793,-4.4926,-4.4928,-4.4929,-4.4834,-4.4828,-4.4823,-4.4817,-4.4919,-4.4928,-4.4937,-4.5109,0,0,-4.4966,-4.497,0,0,0,0,0,0,0,0,-4.4665,-4.4681,-4.4799,-4.4798,-4.4795,-4.4861,-4.4871,-4.499,-4.4836,-4.4819,-4.4821,-4.4815,-4.4908,-4.4917,-4.4948,-4.5114,-4.5118,-4.4967,-4.4972,-4.4976,-4.4979,0,0,0,0,0,0,0,-4.4657,-4.4676,-4.4868,-4.4801,-4.4799,-4.4776,-4.4785,-4.4893,-4.4894,-4.482,-4.4813,-4.4826,-4.4906,-4.494,-4.495,-4.512,-4.4966,-4.4975,-4.4981,-4.4984,-4.5432,-4.5438,0,0,0,0,0,0,-4.4653,-4.467,-4.4864,-4.487,-4.4715,-4.4785,-4.4795,-4.4846,-4.4892,-4.4894,-4.483,-4.4821,-4.4926,-4.4939,-4.4953,-4.5159,-4.4976,-4.4985,-4.4991,-4.5426,-4.5434,-4.544,0,0,0,0,0,0,-4.4648,-4.4671,-4.4861,-4.4769,-4.4791,-4.4796,-4.4854,-4.4851,-4.4885,-4.49,-4.49,-4.4865,-4.4922,-4.494,-4.5071,-4.5161,-4.4989,-4.4998,-4.5419,-4.5428,-4.5437,-4.5571,0,0,0,0,0,0,-4.4641,-4.467,-4.4735,-4.4771,-4.4796,-4.4977,-4.4859,-4.4857,-4.4901,-4.4889,-4.4933,-4.4935,-4.4919,-4.5058,-4.5081,-4.5171,-4.5005,-4.5411,-4.5423,-4.5434,-4.5558,-4.5583,-4.5605,0,0,0,0,0,-4.4631,-4.4769,-4.4739,-4.4763,-4.4878,-4.4982,-4.4997,-4.4976,-4.4909,-4.4975,-4.4984,-4.4933,-4.5147,-4.5072,-4.5097,-4.5191,-4.5405,-4.5419,-4.5433,-4.5548,-4.5578,-4.5604,0,0,0,0,0,0,-4.4745,-4.4773,-4.474,-4.4893,-4.4936,-4.4966,-4.5048,-4.5009,-4.5072,-4.5059,-4.503,-4.5041,-4.518,-4.5198,-4.5114,-4.536,-4.5265,-4.5285,-4.5344,-4.5373,-4.5396,-4.539,-4.5013,0,0,0,0,0,-4.4788,-4.487,-4.489,-4.5023,-4.5046,-4.5044,-4.5089,-4.5068,-4.5112,-4.513,-4.5149,-4.5194,-4.5271,-4.5322,-4.5394,-4.5559,-4.5568,-4.5637,-4.566,-4.5679,-4.5697,-4.5787,-4.5818,-4.5487,-4.5487,-4.5486,0,0,-4.4877,-4.4903,-4.4956,-4.5047,-4.5078,-4.5164,-4.506,-4.5155,-4.522,-4.5144,-4.527,-4.5286,-4.5333,-4.5483,-4.5549,-4.5502,-4.579,-4.5697,-4.5712,-4.572,-4.5805,-4.5836,-4.5864,-4.5496,-4.5494,-4.5493,0,0,-4.5085,-4.5112,-4.5226,-4.5259,-4.5306,-4.5304,-4.5331,-4.5367,-4.5375,-4.5499,-4.5445,-4.5521,-4.5654,-4.5691,-4.5727,-4.5948,-4.5904,-4.5972,-4.6095,-4.6182,-4.6209,-4.6232,-4.6312,-4.6341,-4.5989,-4.599,-4.599,0,-4.5191,-4.5318,-4.5291,-4.5391,-4.5432,-4.5367,-4.5483,-4.5516,-4.5585,-4.5616,-4.5562,-4.5728,-4.5755,-4.5913,-4.5967,-4.5997,-4.6029,-4.5968,-4.6207,-4.623,-4.6251,-4.6327,-4.6357,-4.5998,-4.5997,-4.5996,-4.5995,0,-4.5447,-4.5536,-4.5623,-4.569,-4.5741,-4.5849,-4.5839,-4.5894,-4.5869,-4.5872,-4.6001,-4.6031,-4.6108,-4.6143,-4.612,-4.6298,-4.6268,-4.6211,-4.6115,-4.6291,-4.6362,-4.6391,-4.6009,-4.6006,-4.6004,-4.6002,0,0,-4.5731,-4.5781,-4.5813,-4.5844,-4.5891,-4.5959,-4.6064,-4.6138,-4.6187,-4.6236,-4.6325,-4.6438,-4.6386,-4.6427,-4.6407,-4.6484,-4.6659,-4.6417,-4.6418,-4.6463,-4.6858,-4.6902,-4.6936,-4.6628,-4.6634,-4.6638,-4.6854,0,-4.5941,-4.6123,-4.6101,-4.6275,-4.6357,-4.6296,-4.6387,-4.6426,-4.6432,-4.6503,-4.6509,-4.6591,-4.6514,-4.6539,-4.6612,-4.6622,-4.6738,-4.6606,-4.6712,-4.6716,-4.6704,-4.6973,-4.702,-4.7223,-4.6882,-4.6887,-4.689,0,-4.6212,-4.627,-4.6452,-4.6487,-4.652,-4.6603,-4.667,-4.6738,-4.6781,-4.678,-4.6826,-4.6792,-4.6898,-4.6798,-4.6944,-4.6855,-4.6896,-4.6908,-4.6915,-4.6926,-4.6815,-4.6993,-4.7287,-4.7318,-4.6933,-4.693,-4.6927,0,-4.6403,-4.6527,-4.6652,-4.6679,-4.6722,-4.6782,-4.6803,-4.684,-4.6886,-4.6945,-4.6974,-4.7045,-4.7084,-4.7139,-4.7125,-4.7054,-4.7275,-4.7174,-4.7278,-4.7279,-4.733,-4.7327,-4.7636,-4.7353,-4.7353,-4.7352,-4.7352,0,-4.6642,-4.6756,-4.6739,-4.6816,-4.6942,-4.6916,-4.7042,-4.7055,-4.7088,-4.7168,-4.7118,-4.7194,-4.717,-4.7245,-4.7235,-4.7358,-4.7375,-4.7378,-4.7375,-4.7384,-4.7384,-4.7413,-4.7399,-4.736,-4.7359,-4.7357,-4.7356,0,-4.6878,-4.687,-4.7003,-4.7032,-4.7042,-4.7134,-4.716,-4.7233,-4.7233,-4.7334,-4.7357,-4.7359,-4.7444,-4.7435,-4.7531,-4.7524,-4.7677,-4.7656,-4.7663,-4.7659,-4.7764,-4.7755,-4.8104,-4.8149,-4.7836,-4.7839,-4.7841,0,-4.7032,-4.7118,-4.7156,-4.7205,-4.723,-4.731,-4.7357,-4.7333,-4.7384,-4.744,-4.7507,-4.7587,-4.765,-4.779,-4.78,-4.7873,-4.7854,-4.7971,-4.7865,-4.7872,-4.7858,-4.7854,-4.7863,-4.7993,-4.7997,-4.8,-4.8002,0,-4.7306,-4.7298,-4.7367,-4.7435,-4.7492,-4.7545,-4.7593,-4.7636,-4.7617,-4.7677,-4.7763,-4.7812,-4.7909,-4.7991,-4.806,-4.8081,-4.804,-4.8035,-4.8063,-4.8075,-4.8076,-4.8079,-4.7722,-4.8028,-4.8025,-4.8023,-4.8022,-4.8021,-4.7507,-4.7581,-4.762,-4.7698,-4.7731,-4.7777,-4.7847,-4.7856,-4.7928,-4.8005,-4.7986,-4.8084,-4.8125,-4.8213,-4.8242,-4.8318,-4.8276,-4.8316,-4.8327,-4.8338,-4.8351,-4.8062,-4.833,-4.8329,-4.8329,-4.8328,-4.8328,0,-4.7781,-4.7802,-4.7874,-4.7942,-4.8004,-4.7958,-4.8008,-4.8063,-4.815,-4.8191,-4.8254,-4.8353,-4.8431,-4.8447,-4.8522,-4.858,-4.8563,-4.8601,-4.8597,-4.8603,-4.8384,-4.8353,-4.8613,-4.8613,-4.8613,-4.8613,-4.8613,-4.8613,-4.793,-4.8054,-4.805,-4.819,-4.821,-4.8305,-4.8338,-4.838,-4.8412,-4.8526,-4.859,-4.8599,-4.8631,-4.8707,-4.8777,-4.878,-4.881,-4.8856,-4.8852,-4.8647,-4.8619,-4.8591,-4.8562,-4.8863,-4.8863,-4.9065,-4.9067,-4.9068]},{"header":{"parameterUnit":"m.s-1","parameterCategory":1,"la1":30.2991,"la2":30.254,"lo1":-89.0895,"lo2":-89.0444,"dy":0.0017,"dx":0.0017,"nx":28,"ny":28,"refTime":"2025-01-14T03:00:00:Z","depth":0,"parameterNumber":3,"parameterNumberName":"V-component_of_WINDS"},"data":[0,0,0,0,0,0,0,0,0,0,0,0,0,0,0,0,0,0,0,0,0,0,0,0,0,0,0,0,0,0,0,0,0,0,0,0,0,0,0,0,0,0,0,0,0,0,0,0,0,0,0,0,0,0,0,0,0,0,-3.0967,-3.0967,0,-3.1008,-3.1009,-3.1009,-3.0987,-3.0986,-3.0985,-3.0984,-3.1024,-3.1027,-3.1029,0,0,0,0,0,0,0,0,0,0,0,0,0,-3.0864,-3.0866,-3.0967,-3.0967,-3.0968,-3.1008,-3.1009,-3.1009,-3.0988,-3.0986,-3.0985,-3.0984,-3.1024,-3.1026,-3.1029,0,0,0,0,0,0,0,0,0,0,0,0,0,-3.0908,-3.0867,-3.0967,-3.0962,-3.0962,-3.1008,-3.1009,-3.101,-3.0988,-3.0986,-3.0985,-3.0983,-3.1023,-3.1026,-3.1029,-3.1082,0,0,-3.1039,-3.104,0,0,0,0,0,0,0,0,-3.0905,-3.0911,-3.0962,-3.0962,-3.0962,-3.0991,-3.0988,-3.1034,-3.0988,-3.0978,-3.0984,-3.0982,-3.1015,-3.1018,-3.103,-3.1084,-3.1086,-3.1039,-3.1041,-3.1042,-3.1043,0,0,0,0,0,0,0,-3.0902,-3.091,-3.0983,-3.0963,-3.0963,-3.0956,-3.0961,-3.0996,-3.1005,-3.0979,-3.0977,-3.0983,-3.1014,-3.1027,-3.103,-3.1086,-3.1039,-3.1042,-3.1044,-3.1045,-3.1184,-3.1185,0,0,0,0,0,0,-3.09,-3.0907,-3.0982,-3.0984,-3.0929,-3.096,-3.0964,-3.0983,-3.1005,-3.1006,-3.0984,-3.0981,-3.1022,-3.1027,-3.1032,-3.1094,-3.1042,-3.1045,-3.1047,-3.1182,-3.1184,-3.1186,0,0,0,0,0,0,-3.0898,-3.0907,-3.098,-3.0945,-3.0954,-3.0963,-3.0985,-3.0985,-3.0998,-3.1009,-3.101,-3.0995,-3.1021,-3.1027,-3.1069,-3.1095,-3.1047,-3.105,-3.118,-3.1182,-3.1185,-3.1219,0,0,0,0,0,0,-3.0895,-3.0906,-3.0927,-3.0946,-3.0956,-3.1018,-3.0986,-3.0987,-3.1003,-3.1,-3.102,-3.1021,-3.102,-3.1065,-3.1073,-3.1098,-3.1052,-3.1177,-3.1181,-3.1184,-3.1215,-3.1222,-3.1228,0,0,0,0,0,-3.0891,-3.0935,-3.0929,-3.0938,-3.0983,-3.102,-3.1025,-3.1024,-3.1006,-3.1026,-3.1033,-3.102,-3.1091,-3.1069,-3.1078,-3.1105,-3.1176,-3.118,-3.1184,-3.1212,-3.1221,-3.1228,0,0,0,0,0,0,-3.0919,-3.0938,-3.093,-3.0982,-3.0999,-3.1016,-3.1042,-3.1033,-3.1056,-3.1052,-3.1049,-3.1053,-3.1097,-3.1105,-3.1081,-3.1156,-3.113,-3.1136,-3.1149,-3.1157,-3.1163,-3.116,-3.1055,0,0,0,0,0,-3.0931,-3.096,-3.0975,-3.1018,-3.1028,-3.1033,-3.1049,-3.1047,-3.1065,-3.1072,-3.1082,-3.1098,-3.1124,-3.1141,-3.1166,-3.1216,-3.1219,-3.1239,-3.1246,-3.1251,-3.1256,-3.1281,-3.129,-3.1199,-3.1199,-3.1199,0,0,-3.0956,-3.097,-3.0988,-3.1024,-3.1037,-3.1066,-3.104,-3.1072,-3.1093,-3.1076,-3.1116,-3.1124,-3.1143,-3.1189,-3.121,-3.1197,-3.1281,-3.1256,-3.126,-3.1262,-3.1286,-3.1295,-3.1302,-3.1202,-3.1201,-3.1201,0,0,-3.1016,-3.103,-3.1068,-3.1081,-3.1102,-3.1105,-3.1114,-3.1132,-3.1137,-3.1177,-3.1164,-3.1189,-3.1234,-3.1247,-3.126,-3.1323,-3.1312,-3.1331,-3.1364,-3.1389,-3.1397,-3.1403,-3.1424,-3.1432,-3.1336,-3.1336,-3.1336,0,-3.1044,-3.1089,-3.1087,-3.112,-3.1136,-3.1122,-3.1159,-3.1172,-3.1199,-3.121,-3.1195,-3.125,-3.1262,-3.131,-3.1326,-3.1337,-3.1345,-3.1329,-3.1396,-3.1402,-3.1408,-3.1428,-3.1436,-3.1338,-3.1338,-3.1338,-3.1338,0,-3.1122,-3.1152,-3.118,-3.1207,-3.1225,-3.126,-3.1262,-3.1281,-3.1277,-3.1281,-3.1321,-3.1334,-3.1361,-3.1372,-3.1368,-3.1419,-3.1411,-3.1396,-3.137,-3.1419,-3.1437,-3.1445,-3.1342,-3.1341,-3.134,-3.134,0,0,-3.1201,-3.1226,-3.1236,-3.1247,-3.1268,-3.1291,-3.1325,-3.1351,-3.1366,-3.1385,-3.1411,-3.1449,-3.1436,-3.145,-3.1447,-3.1469,-3.1517,-3.1452,-3.1452,-3.1462,-3.1572,-3.1582,-3.1591,-3.151,-3.1511,-3.1512,-3.157,0,-3.1261,-3.132,-3.132,-3.1374,-3.1401,-3.1388,-3.1417,-3.1432,-3.1437,-3.146,-3.1464,-3.1491,-3.1471,-3.148,-3.1501,-3.1507,-3.1539,-3.1503,-3.1533,-3.1534,-3.1528,-3.1601,-3.1612,-3.1666,-3.1578,-3.1579,-3.158,0,-3.134,-3.1362,-3.1419,-3.1435,-3.1446,-3.1472,-3.1495,-3.1518,-3.1534,-3.1535,-3.1551,-3.1544,-3.1576,-3.155,-3.1593,-3.1568,-3.1581,-3.1585,-3.1587,-3.1589,-3.1559,-3.1604,-3.1684,-3.1691,-3.1592,-3.1591,-3.159,0,-3.139,-3.1434,-3.1473,-3.1483,-3.1503,-3.1521,-3.153,-3.1545,-3.156,-3.158,-3.1589,-3.1612,-3.1625,-3.1642,-3.1641,-3.1622,-3.1684,-3.1658,-3.1685,-3.1685,-3.1699,-3.1698,-3.178,-3.1708,-3.1708,-3.1708,-3.1708,0,-3.1458,-3.1493,-3.1496,-3.152,-3.1558,-3.1556,-3.1593,-3.16,-3.1613,-3.1637,-3.1628,-3.165,-3.1648,-3.167,-3.167,-3.1705,-3.1711,-3.1712,-3.1711,-3.1712,-3.1712,-3.172,-3.1716,-3.171,-3.171,-3.1709,-3.1709,0,-3.152,-3.1524,-3.1565,-3.158,-3.1585,-3.1612,-3.1624,-3.1646,-3.165,-3.168,-3.1687,-3.1693,-3.1718,-3.1719,-3.1749,-3.1748,-3.179,-3.1786,-3.1785,-3.1784,-3.1811,-3.1807,-3.19,-3.1911,-3.1833,-3.1834,-3.1835,0,-3.1562,-3.1589,-3.1607,-3.1622,-3.1632,-3.1658,-3.1673,-3.1672,-3.1688,-3.1708,-3.1727,-3.1752,-3.1771,-3.1813,-3.1818,-3.1841,-3.1836,-3.1867,-3.1839,-3.1839,-3.1835,-3.1833,-3.1834,-3.1872,-3.1873,-3.1873,-3.1874,0,-3.1636,-3.1636,-3.166,-3.1683,-3.1701,-3.172,-3.1736,-3.1749,-3.175,-3.1768,-3.1794,-3.181,-3.184,-3.1864,-3.1885,-3.1893,-3.1883,-3.1883,-3.189,-3.1891,-3.1888,-3.1889,-3.1798,-3.188,-3.188,-3.1879,-3.1879,-3.1879,-3.1689,-3.1711,-3.1727,-3.1752,-3.1765,-3.178,-3.1801,-3.1807,-3.183,-3.1854,-3.1852,-3.188,-3.1894,-3.1922,-3.1931,-3.1953,-3.1942,-3.1953,-3.1956,-3.1958,-3.196,-3.1886,-3.1957,-3.1957,-3.1957,-3.1957,-3.1956,0,-3.1761,-3.1771,-3.1794,-3.1818,-3.1837,-3.1827,-3.1845,-3.1861,-3.1887,-3.1901,-3.1921,-3.195,-3.1973,-3.198,-3.2002,-3.2018,-3.2014,-3.2024,-3.2022,-3.2024,-3.1969,-3.196,-3.2027,-3.2027,-3.2027,-3.2027,-3.2027,-3.2027,-3.1801,-3.1838,-3.184,-3.1882,-3.1891,-3.1919,-3.193,-3.1943,-3.1955,-3.1988,-3.2007,-3.2012,-3.2023,-3.2046,-3.2066,-3.2067,-3.2075,-3.2087,-3.2086,-3.2035,-3.2028,-3.2021,-3.2012,-3.2089,-3.2089,-3.2138,-3.2139,-3.2139]}]]